[[{"header":{"parameterUnit":"m.s-1","parameterCategory":1,"la1":30.2991,"la2":30.254,"lo1":-89.0895,"lo2":-89.0444,"dy":0.0017,"dx":0.0017,"nx":28,"ny":28,"refTime":"2023-09-05T03:00:00:Z","depth":0,"parameterNumber":2,"parameterNumberName":"U-component_of_WINDS"},"data":[0,0,0,0,0,0,0,0,0,0,0,0,0,0,0,0,0,0,0,0,0,0,0,0,0,0,0,0,0,0,0,0,0,0,0,0,0,0,0,0,0,0,0,0,0,0,0,0,0,0,0,0,0,0,0,0,0,0,-4.3948,-4.3949,0,-4.3996,-4.3997,-4.3997,-4.3967,-4.3965,-4.3964,-4.3962,-4.4012,-4.4015,-4.4018,0,0,0,0,0,0,0,0,0,0,0,0,0,-4.3831,-4.3833,-4.3948,-4.3949,-4.3949,-4.3996,-4.3997,-4.3998,-4.3967,-4.3965,-4.3963,-4.3962,-4.4012,-4.4015,-4.4018,0,0,0,0,0,0,0,0,0,0,0,0,0,-4.3881,-4.3834,-4.3948,-4.394,-4.3939,-4.3996,-4.3997,-4.3998,-4.3967,-4.3965,-4.3963,-4.3961,-4.401,-4.4014,-4.4018,-4.4086,0,0,-4.4031,-4.4032,0,0,0,0,0,0,0,0,-4.3878,-4.3885,-4.394,-4.394,-4.394,-4.3973,-4.3974,-4.4027,-4.3968,-4.3957,-4.3962,-4.396,-4.4001,-4.4006,-4.402,-4.4089,-4.4091,-4.4031,-4.4033,-4.4035,-4.4036,0,0,0,0,0,0,0,-4.3874,-4.3883,-4.3967,-4.3941,-4.3941,-4.3934,-4.3939,-4.3984,-4.399,-4.3957,-4.3955,-4.3961,-4.4001,-4.4016,-4.4021,-4.4092,-4.4031,-4.4034,-4.4037,-4.4038,-4.4219,-4.4221,0,0,0,0,0,0,-4.3871,-4.388,-4.3966,-4.3969,-4.3903,-4.3938,-4.3943,-4.3965,-4.399,-4.3992,-4.3963,-4.396,-4.401,-4.4016,-4.4022,-4.4103,-4.4035,-4.4039,-4.4041,-4.4216,-4.4219,-4.4222,0,0,0,0,0,0,-4.3869,-4.3879,-4.3964,-4.3924,-4.3934,-4.3942,-4.3967,-4.3967,-4.3982,-4.3994,-4.3995,-4.3977,-4.4009,-4.4017,-4.4071,-4.4104,-4.4041,-4.4044,-4.4214,-4.4217,-4.4221,-4.4265,0,0,0,0,0,0,-4.3866,-4.3879,-4.3904,-4.3925,-4.3936,-4.4011,-4.3969,-4.3969,-4.3989,-4.3985,-4.4008,-4.4009,-4.4007,-4.4065,-4.4075,-4.4108,-4.4047,-4.4211,-4.4215,-4.4219,-4.426,-4.4269,-4.4277,0,0,0,0,0,-4.3862,-4.3915,-4.3906,-4.3916,-4.3968,-4.4013,-4.402,-4.4016,-4.3992,-4.4017,-4.4026,-4.4009,-4.4099,-4.407,-4.4081,-4.4117,-4.4208,-4.4214,-4.4219,-4.4256,-4.4267,-4.4277,0,0,0,0,0,0,-4.3898,-4.3917,-4.3907,-4.3968,-4.3989,-4.4008,-4.404,-4.4028,-4.4056,-4.4051,-4.4046,-4.4051,-4.4108,-4.4118,-4.4086,-4.4184,-4.415,-4.4158,-4.4175,-4.4185,-4.4194,-4.4189,-4.4051,0,0,0,0,0,-4.3913,-4.3948,-4.3963,-4.4015,-4.4026,-4.4032,-4.4051,-4.4047,-4.4068,-4.4076,-4.4088,-4.411,-4.4143,-4.4165,-4.4197,-4.4262,-4.4267,-4.4292,-4.4301,-4.4308,-4.4314,-4.4349,-4.436,-4.4239,-4.4239,-4.4239,0,0,-4.3945,-4.396,-4.3982,-4.4023,-4.4039,-4.4074,-4.4039,-4.4078,-4.4105,-4.4083,-4.4133,-4.4144,-4.4168,-4.4228,-4.4255,-4.4238,-4.4349,-4.4314,-4.432,-4.4322,-4.4356,-4.4367,-4.4377,-4.4243,-4.4242,-4.4242,0,0,-4.402,-4.4035,-4.408,-4.4097,-4.4121,-4.4124,-4.4135,-4.4156,-4.4161,-4.4213,-4.4197,-4.4229,-4.4286,-4.4304,-4.432,-4.4404,-4.4389,-4.4415,-4.4458,-4.4492,-4.4502,-4.451,-4.4539,-4.4549,-4.4421,-4.4421,-4.4421,0,-4.4056,-4.4109,-4.4105,-4.4146,-4.4164,-4.4146,-4.4192,-4.4209,-4.4242,-4.4255,-4.4236,-4.4308,-4.4323,-4.4387,-4.4407,-4.4422,-4.4434,-4.4411,-4.4501,-4.4509,-4.4517,-4.4544,-4.4555,-4.4424,-4.4424,-4.4424,-4.4423,0,-4.4152,-4.4189,-4.4223,-4.4255,-4.4278,-4.4321,-4.4324,-4.4348,-4.4342,-4.4347,-4.44,-4.4418,-4.4452,-4.4468,-4.4462,-4.4531,-4.4519,-4.4501,-4.4466,-4.4531,-4.4556,-4.4567,-4.4428,-4.4427,-4.4426,-4.4426,0,0,-4.425,-4.428,-4.4292,-4.4306,-4.4332,-4.4361,-4.4404,-4.4437,-4.4457,-4.4482,-4.4517,-4.4567,-4.455,-4.4569,-4.4566,-4.4596,-4.466,-4.4574,-4.4574,-4.4588,-4.4736,-4.4748,-4.476,-4.4652,-4.4654,-4.4655,-4.4733,0,-4.4325,-4.4399,-4.4397,-4.4465,-4.4499,-4.4484,-4.4521,-4.4541,-4.4548,-4.4578,-4.4586,-4.4621,-4.4596,-4.4608,-4.4637,-4.4646,-4.469,-4.4641,-4.4684,-4.4685,-4.4676,-4.4774,-4.4787,-4.4859,-4.4743,-4.4745,-4.4746,0,-4.4423,-4.445,-4.4522,-4.4542,-4.4557,-4.459,-4.4621,-4.465,-4.4673,-4.4676,-4.4698,-4.469,-4.4734,-4.47,-4.476,-4.4727,-4.4745,-4.4752,-4.4755,-4.4757,-4.4718,-4.4777,-4.4882,-4.4893,-4.4762,-4.4761,-4.476,0,-4.4485,-4.454,-4.4589,-4.4603,-4.4629,-4.4652,-4.4664,-4.4685,-4.4706,-4.4733,-4.4746,-4.4779,-4.4796,-4.4822,-4.4823,-4.4798,-4.4884,-4.485,-4.4887,-4.4887,-4.4903,-4.4902,-4.5011,-4.4918,-4.4918,-4.4918,-4.4918,0,-4.4569,-4.4613,-4.4618,-4.4648,-4.4697,-4.4696,-4.4745,-4.4755,-4.4774,-4.4806,-4.4795,-4.4826,-4.4827,-4.4859,-4.4861,-4.491,-4.4918,-4.4922,-4.4921,-4.4921,-4.4921,-4.4931,-4.4926,-4.4921,-4.492,-4.492,-4.4919,0,-4.4646,-4.4651,-4.4704,-4.4724,-4.4731,-4.4766,-4.4783,-4.4813,-4.4819,-4.486,-4.487,-4.488,-4.4917,-4.4922,-4.4965,-4.4966,-4.5025,-4.502,-4.5017,-4.5015,-4.5051,-4.5047,-4.517,-4.5186,-4.5084,-4.5085,-4.5086,0,-4.4697,-4.4731,-4.4755,-4.4776,-4.4789,-4.4823,-4.4843,-4.4844,-4.4866,-4.4895,-4.4921,-4.4957,-4.4985,-4.5045,-4.5056,-4.5089,-4.5084,-4.5125,-4.5089,-4.5088,-4.5083,-4.508,-4.5083,-4.5131,-4.5132,-4.5133,-4.5134,0,-4.4789,-4.479,-4.482,-4.4851,-4.4876,-4.4901,-4.4924,-4.4942,-4.4945,-4.4971,-4.5008,-4.503,-4.5075,-4.511,-4.5143,-4.5156,-4.5146,-4.5146,-4.5156,-4.5155,-4.5151,-4.5152,-4.5034,-4.5142,-4.5141,-4.5141,-4.514,-4.514,-4.4854,-4.4883,-4.4904,-4.4938,-4.4956,-4.4978,-4.5006,-4.5016,-4.5047,-4.5082,-4.5082,-4.5122,-4.5145,-4.5188,-4.5204,-4.5236,-4.5223,-4.5238,-4.5241,-4.5244,-4.5247,-4.5148,-4.5242,-4.5242,-4.5242,-4.5242,-4.5242,0,-4.4943,-4.4957,-4.4988,-4.5021,-4.5047,-4.5036,-4.5061,-4.5085,-4.5121,-4.5143,-4.5171,-4.5214,-4.5249,-4.5263,-4.5297,-4.532,-4.5317,-4.5329,-4.5327,-4.533,-4.5258,-4.5245,-4.5332,-4.5332,-4.5332,-4.5332,-4.5332,-4.5332,-4.4993,-4.5041,-4.5045,-4.5102,-4.5115,-4.5154,-4.517,-4.519,-4.5208,-4.5256,-4.5284,-4.5294,-4.5313,-4.5349,-4.538,-4.5384,-4.5396,-4.541,-4.5412,-4.5344,-4.5335,-4.5326,-4.5314,-4.5414,-4.5414,-4.5481,-4.5481,-4.5482]},{"header":{"parameterUnit":"m.s-1","parameterCategory":1,"la1":30.2991,"la2":30.254,"lo1":-89.0895,"lo2":-89.0444,"dy":0.0017,"dx":0.0017,"nx":28,"ny":28,"refTime":"2023-09-05T03:00:00:Z","depth":0,"parameterNumber":3,"parameterNumberName":"V-component_of_WINDS"},"data":[0,0,0,0,0,0,0,0,0,0,0,0,0,0,0,0,0,0,0,0,0,0,0,0,0,0,0,0,0,0,0,0,0,0,0,0,0,0,0,0,0,0,0,0,0,0,0,0,0,0,0,0,0,0,0,0,0,0,3.4047,3.4048,0,3.4061,3.4061,3.4061,3.4053,3.4053,3.4053,3.4052,3.4064,3.4065,3.4065,0,0,0,0,0,0,0,0,0,0,0,0,0,3.4015,3.4016,3.4047,3.4048,3.4048,3.4061,3.4061,3.4061,3.4053,3.4053,3.4053,3.4052,3.4064,3.4065,3.4066,0,0,0,0,0,0,0,0,0,0,0,0,0,3.4029,3.4016,3.4047,3.4046,3.4046,3.406,3.4061,3.4061,3.4053,3.4053,3.4052,3.4052,3.4064,3.4065,3.4066,3.4083,0,0,3.4069,3.4069,0,0,0,0,0,0,0,0,3.4028,3.403,3.4046,3.4046,3.4046,3.4055,3.4054,3.4068,3.4054,3.405,3.4052,3.4052,3.4061,3.4063,3.4066,3.4083,3.4084,3.4069,3.4069,3.407,3.407,0,0,0,0,0,0,0,3.4027,3.4029,3.4053,3.4046,3.4046,3.4044,3.4045,3.4056,3.4059,3.4051,3.405,3.4052,3.4061,3.4065,3.4066,3.4084,3.4069,3.407,3.407,3.4071,3.4116,3.4116,0,0,0,0,0,0,3.4026,3.4029,3.4052,3.4053,3.4035,3.4045,3.4046,3.4052,3.4059,3.4059,3.4052,3.4052,3.4064,3.4065,3.4067,3.4087,3.407,3.4071,3.4071,3.4115,3.4116,3.4117,0,0,0,0,0,0,3.4026,3.4029,3.4052,3.4041,3.4044,3.4046,3.4053,3.4053,3.4057,3.406,3.406,3.4056,3.4063,3.4065,3.4079,3.4087,3.4071,3.4072,3.4114,3.4115,3.4116,3.4128,0,0,0,0,0,0,3.4025,3.4028,3.4035,3.4041,3.4044,3.4064,3.4053,3.4054,3.4059,3.4058,3.4063,3.4064,3.4063,3.4077,3.408,3.4088,3.4073,3.4114,3.4115,3.4116,3.4127,3.4129,3.4131,0,0,0,0,0,3.4024,3.4037,3.4035,3.4038,3.4052,3.4064,3.4066,3.4065,3.4059,3.4066,3.4068,3.4064,3.4086,3.4079,3.4082,3.409,3.4113,3.4114,3.4116,3.4126,3.4128,3.4131,0,0,0,0,0,0,3.4031,3.4038,3.4036,3.4052,3.4058,3.4063,3.4071,3.4068,3.4076,3.4074,3.4073,3.4074,3.4088,3.4091,3.4083,3.4107,3.4099,3.4101,3.4105,3.4108,3.411,3.4109,3.4074,0,0,0,0,0,3.4035,3.4045,3.405,3.4063,3.4066,3.4068,3.4073,3.4073,3.4078,3.4081,3.4084,3.4089,3.4098,3.4103,3.4111,3.4127,3.4128,3.4135,3.4137,3.4139,3.414,3.4149,3.4152,3.4121,3.4121,3.4121,0,0,3.4042,3.4047,3.4053,3.4065,3.4069,3.4079,3.407,3.4081,3.4088,3.4082,3.4095,3.4098,3.4104,3.4119,3.4126,3.4121,3.4149,3.414,3.4142,3.4142,3.4151,3.4154,3.4156,3.4122,3.4122,3.4122,0,0,3.406,3.4065,3.4077,3.4082,3.4089,3.4091,3.4094,3.41,3.4102,3.4115,3.4111,3.4119,3.4134,3.4138,3.4142,3.4164,3.416,3.4166,3.4177,3.4186,3.4189,3.4191,3.4198,3.4201,3.4168,3.4168,3.4168,0,3.4068,3.4083,3.4083,3.4094,3.41,3.4096,3.4108,3.4113,3.4122,3.4126,3.4121,3.4139,3.4143,3.4159,3.4165,3.4168,3.4171,3.4165,3.4188,3.4191,3.4193,3.42,3.4202,3.4169,3.4169,3.4169,3.4169,0,3.4093,3.4103,3.4112,3.4122,3.4128,3.4139,3.4141,3.4148,3.4147,3.4149,3.4162,3.4167,3.4176,3.418,3.4179,3.4196,3.4193,3.4189,3.418,3.4196,3.4203,3.4205,3.417,3.417,3.4169,3.4169,0,0,3.4115,3.4126,3.4129,3.4133,3.4142,3.4149,3.4161,3.417,3.4176,3.4183,3.4192,3.4205,3.4201,3.4206,3.4205,3.4213,3.4229,3.4207,3.4207,3.4211,3.4249,3.4252,3.4255,3.4227,3.4228,3.4228,3.4248,0,3.4133,3.4154,3.4155,3.4173,3.4183,3.418,3.419,3.4196,3.4199,3.4207,3.4209,3.4219,3.4213,3.4216,3.4223,3.4226,3.4237,3.4224,3.4236,3.4236,3.4234,3.4259,3.4262,3.428,3.4251,3.4251,3.4252,0,3.4157,3.4166,3.4185,3.4193,3.4197,3.4206,3.4215,3.4223,3.423,3.4231,3.4237,3.4236,3.4247,3.4239,3.4255,3.4246,3.4251,3.4253,3.4254,3.4254,3.4244,3.4259,3.4286,3.4289,3.4256,3.4255,3.4255,0,3.4171,3.4187,3.4201,3.4205,3.4215,3.4221,3.4225,3.4232,3.4238,3.4245,3.4249,3.4258,3.4263,3.427,3.4271,3.4264,3.4287,3.4278,3.4288,3.4288,3.4292,3.4291,3.4319,3.4296,3.4296,3.4296,3.4296,0,3.4191,3.4203,3.4208,3.4216,3.423,3.4231,3.4244,3.4248,3.4254,3.4263,3.4261,3.427,3.4271,3.4279,3.428,3.4293,3.4295,3.4296,3.4296,3.4296,3.4296,3.4299,3.4297,3.4296,3.4296,3.4296,3.4296,0,3.4209,3.4212,3.4227,3.4235,3.4238,3.4247,3.4254,3.4262,3.4265,3.4276,3.4279,3.4283,3.4293,3.4295,3.4307,3.4307,3.4323,3.4322,3.4321,3.432,3.4329,3.4328,3.436,3.4364,3.4338,3.4338,3.4339,0,3.4221,3.423,3.424,3.4246,3.4251,3.4261,3.4267,3.4269,3.4275,3.4285,3.4292,3.4302,3.431,3.4326,3.433,3.4339,3.4338,3.4348,3.4339,3.4339,3.4338,3.4337,3.4338,3.435,3.435,3.435,3.435,0,3.4242,3.4244,3.4253,3.4264,3.4272,3.428,3.4287,3.4292,3.4295,3.4303,3.4314,3.432,3.4333,3.4343,3.4352,3.4356,3.4353,3.4354,3.4356,3.4356,3.4355,3.4355,3.4325,3.4352,3.4352,3.4352,3.4352,3.4352,3.4257,3.4266,3.4274,3.4285,3.4291,3.4298,3.4306,3.4311,3.432,3.4331,3.4331,3.4343,3.435,3.4363,3.4367,3.4376,3.4373,3.4377,3.4378,3.4378,3.4379,3.4354,3.4378,3.4378,3.4378,3.4378,3.4378,0,3.4278,3.4284,3.4294,3.4305,3.4314,3.4312,3.4321,3.4328,3.4338,3.4345,3.4354,3.4366,3.4376,3.4381,3.4391,3.4397,3.4397,3.44,3.4399,3.44,3.4382,3.4378,3.44,3.44,3.44,3.44,3.44,3.44,3.429,3.4305,3.4307,3.4325,3.433,3.4342,3.4347,3.4354,3.436,3.4374,3.4383,3.4386,3.4393,3.4403,3.4412,3.4413,3.4417,3.442,3.4421,3.4403,3.4401,3.4399,3.4396,3.4421,3.4421,3.4438,3.4438,3.4439]}]]